Probability
3 2 2 1 0 0 0 0 0 0 0 0 0 0 0 0 0 0 0 0 0 0 0 0 0 0 0 0 0 0 0 0 0 0 0 0 0 0 0 0 0 0 0 0 0 0 0 0 0
2 1 1 0 0 0 0 0 0 0 0 0 0 0 0 0 0 0 0 0 0 0 0 0 0 0 0 0 0 0 0 0 0 0 0 0 0 0 0 0 0 0 0 0 0 0 0 0 0
2 1 0 0 0 0 0 0 0 0 0 0 0 0 0 0 0 0 0 0 0 0 0 0 0 0 0 0 0 0 0 0 0 0 0 0 0 0 0 0 0 0 0 0 0 0 0 0 0
2 2 1 0 0 0 0 0 0 0 0 0 0 0 0 0 0 0 0 0 0 0 0 0 0 0 0 0 0 0 0 0 0 0 0 0 0 0 0 0 0 0 0 0 0 0 0 0 0
4 3 1 0 0 0 0 0 0 0 0 0 0 0 0 0 0 0 0 0 0 0 0 0 0 0 0 0 0 0 0 0 0 0 0 0 0 0 0 0 0 0 0 0 0 0 0 0 0
5 3 1 0 0 0 0 0 0 0 0 0 0 0 0 0 0 0 0 0 0 0 0 0 0 0 0 0 0 0 0 0 0 0 0 0 0 0 0 0 0 0 0 0 0 0 0 0 0
4 3 1 0 0 0 0 0 0 0 0 0 0 0 0 0 0 0 0 0 0 0 0 0 0 0 0 0 0 0 0 0 0 0 0 0 0 0 0 0 0 0 0 0 0 0 0 0 0
2 1 0 0 0 0 0 0 0 0 0 0 0 0 0 0 0 0 0 0 0 0 0 0 0 0 0 0 0 0 1 1 1 0 0 0 0 0 0 0 0 0 0 0 0 0 0 0 0
1 1 0 0 1 1 1 0 0 0 0 0 1 1 1 0 0 0 0 0 0 0 0 0 0 0 0 0 0 0 1 2 1 0 0 0 0 0 0 0 0 0 0 0 0 0 0 0 0
1 1 1 1 1 2 1 0 0 0 0 1 2 2 2 1 0 0 0 0 0 0 0 0 0 0 0 0 0 0 1 2 1 0 0 0 0 0 0 0 0 0 0 0 0 0 0 0 0
0 0 0 0 1 2 1 0 0 0 0 1 2 2 2 1 0 0 0 0 0 0 0 0 0 0 0 0 0 0 0 0 0 0 0 0 0 0 0 0 0 0 0 0 0 0 0 0 0
0 0 0 0 0 1 1 0 0 0 0 0 1 1 1 0 0 0 0 0 0 0 0 0 0 0 0 0 0 0 0 0 0 0 1 0 0 0 0 0 0 0 0 0 0 0 0 0 0
0 0 0 0 0 0 0 0 0 0 0 0 0 0 0 0 0 0 0 0 0 0 0 0 0 0 0 0 0 0 0 0 0 0 0 0 0 0 0 0 0 0 0 0 0 0 0 0 0
1 0 0 0 0 0 0 0 0 0 0 0 0 0 0 0 0 0 0 0 0 0 0 0 0 0 0 0 0 0 0 0 0 0 0 0 0 0 0 0 0 0 0 0 0 0 0 0 0
1 0 0 0 0 0 0 0 0 0 0 0 0 0 0 0 0 0 0 0 0 0 0 0 0 0 0 0 0 0 0 0 0 0 0 0 0 0 0 0 0 0 0 0 0 0 0 0 0
1 0 0 0 0 0 0 0 0 0 0 0 0 0 0 0 0 0 0 0 0 0 0 0 0 0 0 0 0 0 0 0 0 0 0 0 0 0 0 0 0 0 0 0 0 0 0 0 0
0 0 0 0 0 0 0 0 0 0 0 0 0 1 1 1 0 0 0 0 0 0 0 0 0 0 0 0 0 0 0 0 0 0 0 0 0 0 0 0 0 0 0 0 0 0 0 0 0
0 0 0 0 0 0 0 0 0 0 0 0 0 1 1 1 0 0 0 0 0 0 0 0 0 0 0 0 0 0 0 0 0 0 0 0 0 0 0 0 0 0 0 0 0 0 0 0 0
0 0 0 0 0 0 0 0 0 0 0 0 0 0 0 0 0 0 0 0 0 0 0 0 0 0 0 0 0 0 0 0 0 0 0 0 0 0 0 0 0 0 0 0 0 0 0 0 0
0 0 0 0 0 0 0 0 0 0 0 0 0 0 0 0 0 0 0 0 0 0 0 0 0 0 0 0 0 0 0 0 0 0 0 0 0 0 0 0 0 0 0 0 0 0 0 0 0
0 0 0 0 0 0 0 0 0 0 0 0 0 0 0 0 0 0 0 0 0 0 0 0 0 0 0 0 0 0 0 0 0 0 0 0 0 0 0 0 0 0 0 0 0 0 0 0 0
0 0 0 0 0 0 0 0 0 0 0 0 1 1 1 1 1 1 0 0 0 0 0 0 0 0 0 0 0 0 0 0 0 0 0 0 0 0 0 0 0 0 0 0 0 0 0 0 0
0 0 0 0 0 0 0 0 0 0 0 1 1 0 1 1 2 2 1 1 0 0 0 0 0 0 0 0 0 0 0 0 0 0 0 0 0 0 0 0 0 0 0 0 0 0 0 0 0
0 0 0 0 0 0 0 0 0 0 0 0 0 0 1 2 3 4 3 1 0 0 0 0 0 0 0 0 0 0 0 0 0 0 0 0 0 0 0 0 0 0 0 0 0 0 0 0 0
0 0 0 0 0 0 0 0 0 0 0 0 0 1 1 2 5 6 4 1 0 0 0 0 0 0 0 0 0 0 0 0 0 0 0 0 0 0 0 0 0 0 0 0 0 0 0 0 0
0 0 0 0 0 0 0 0 0 0 0 0 1 2 2 3 5 5 3 1 0 0 0 0 0 0 0 0 0 0 0 0 0 0 0 0 0 0 0 0 0 0 0 0 0 0 0 0 0
0 0 0 0 0 0 0 0 0 0 0 0 1 2 3 3 4 3 3 2 1 0 0 0 0 0 0 0 0 0 0 0 0 0 0 0 0 0 0 0 0 0 0 0 0 0 0 0 0
0 0 0 0 0 0 0 0 0 0 0 0 1 2 3 3 2 2 2 3 1 0 0 0 0 0 0 0 0 0 0 0 0 0 0 0 0 0 0 0 0 0 0 0 0 0 0 0 0
0 0 0 0 0 0 0 0 0 0 0 0 1 3 3 3 2 1 2 3 2 1 0 0 1 1 0 0 0 0 0 0 0 0 0 0 0 0 0 0 0 0 0 0 0 0 0 0 0
0 0 0 0 0 0 0 0 0 0 0 0 1 3 4 3 2 1 2 3 3 1 0 1 2 2 1 0 0 0 0 0 0 0 0 0 0 0 0 0 0 0 0 0 0 0 0 0 0
Wind_Speed
12 11 6 2 2 2 1 4 7 6 8 9 11 12 13 13 10 10 3 7 13 13 12 12 13 13 12 12 12 12 11 11 11 11 10 10 9 9 9 9 9 9 9 9 9 9 9 9 9
11 10 5 3 3 1 3 6 8 9 8 7 10 13 13 12 12 9 4 9 14 14 12 12 13 13 13 13 13 12 12 12 11 11 11 10 10 10 9 9 9 9 8 8 8 8 8 8 8
12 8 4 3 2 1 4 7 7 9 7 8 9 11 9 8 10 6 6 11 14 14 12 12 13 13 13 13 13 12 12 12 11 11 10 10 9 10 9 9 8 8 8 8 7 7 7 7 7
5 3 4 2 1 5 7 7 5 7 7 9 10 10 10 9 9 9 9 12 15 14 12 11 13 13 13 13 13 12 12 11 10 10 9 9 9 9 8 8 8 7 7 7 7 6 6 6 6
3 3 3 2 2 6 7 6 5 6 7 10 13 13 11 11 12 11 10 12 13 13 12 12 13 13 13 13 12 12 11 10 10 9 9 8 8 8 7 7 7 6 6 6 6 5 5 5 5
3 3 3 1 3 5 6 6 8 8 11 13 14 13 9 10 10 10 10 10 12 13 12 12 13 14 13 12 11 11 10 9 9 8 7 6 6 6 6 6 6 6 5 5 5 5 4 4 4
3 3 4 2 4 5 5 5 6 6 9 9 11 11 10 9 8 9 9 8 9 10 11 10 10 11 12 12 10 9 8 7 6 5 4 3 4 4 4 6 5 5 5 5 4 4 3 3 3
3 4 4 1 3 5 5 5 7 7 7 9 11 10 10 10 9 9 8 8 7 7 8 9 9 10 9 8 9 8 7 6 4 3 3 3 3 3 3 5 4 4 3 3 2 2 2 3 4
4 4 2 1 2 5 6 6 8 7 7 8 11 14 15 14 11 9 7 7 6 6 6 6 6 6 7 8 9 8 6 5 5 5 6 4 3 4 4 5 4 1 0 1 3 4 4 5 6
4 3 2 2 3 5 5 6 7 7 9 12 15 16 16 13 11 10 9 8 7 6 6 6 6 5 5 4 5 4 4 3 2 1 1 0 1 1 3 5 4 3 3 3 6 7 6 6 4
5 3 1 3 4 4 5 4 5 9 8 12 15 17 14 12 10 9 8 7 7 6 5 5 5 4 5 3 3 1 1 2 2 1 2 2 2 1 2 2 3 3 3 2 3 5 4 2 1
4 1 0 4 4 3 3 4 6 7 10 13 14 15 13 12 10 9 9 7 6 6 5 4 5 5 6 4 2 2 2 2 2 3 3 2 1 2 2 1 1 1 1 1 2 2 2 2 2
3 2 2 3 3 3 4 6 7 9 12 14 14 13 11 10 9 9 8 7 7 6 5 5 5 6 5 3 1 4 3 2 3 2 2 3 2 2 2 1 1 2 2 2 2 2 3 3 2
3 3 3 4 4 4 6 6 7 10 13 14 14 12 11 10 10 9 8 8 7 6 6 5 5 4 5 3 3 4 3 2 3 2 2 3 2 3 3 2 2 2 2 2 2 3 2 2 2
2 3 4 4 5 6 7 6 8 10 13 14 13 11 10 9 9 8 7 7 8 7 7 5 4 5 6 5 4 3 3 3 3 2 3 3 3 4 4 3 3 2 3 3 3 4 3 2 2
6 6 5 6 7 7 7 6 9 11 13 12 11 11 9 9 9 7 7 6 7 7 8 5 5 6 6 5 3 3 4 3 3 3 4 5 5 5 4 3 3 3 3 3 2 3 3 3 3
6 7 8 7 9 8 7 7 9 10 12 12 11 11 10 10 9 8 8 6 6 7 8 7 6 6 6 4 3 4 4 3 4 4 4 5 6 6 4 3 3 4 3 3 4 3 2 3 2
6 8 8 8 10 9 7 8 10 11 12 11 10 10 10 10 9 9 8 6 5 5 6 8 6 5 5 2 3 3 3 3 4 4 3 4 4 5 4 3 5 4 3 3 3 3 3 2 2
5 6 6 6 8 8 8 9 11 12 11 10 10 10 9 9 10 9 8 7 5 4 5 7 7 6 4 2 2 2 2 3 3 3 3 3 4 4 3 3 3 3 3 4 4 3 4 3 2
5 5 4 3 6 6 7 10 10 11 12 11 11 12 10 10 10 9 9 8 6 5 5 7 6 5 5 2 2 3 3 3 3 2 3 4 5 5 4 4 3 3 3 4 4 4 3 3 3
4 4 4 4 2 4 5 7 9 11 11 11 10 11 12 12 13 11 9 8 7 5 5 6 7 6 5 4 3 3 3 2 2 3 3 4 4 5 5 5 3 3 3 3 3 4 4 3 3
4 3 3 5 4 4 7 4 8 11 11 12 11 10 10 10 12 11 10 8 7 6 5 6 6 6 5 5 3 3 2 2 2 3 2 3 4 4 4 4 4 4 4 4 4 4 3 3 3
3 3 3 4 4 4 7 5 7 12 13 13 13 11 10 10 11 11 10 9 7 6 5 5 6 7 6 5 3 2 2 2 2 3 3 3 3 3 3 3 3 4 3 4 4 4 4 3 3
3 2 3 4 3 6 10 7 7 12 16 16 15 13 11 11 10 10 10 8 7 6 6 5 7 6 5 4 4 3 4 3 3 3 2 2 2 2 3 3 4 4 3 4 3 3 4 3 4
6 4 2 3 4 6 9 8 7 11 15 17 16 15 13 11 10 11 11 9 8 7 7 6 7 6 5 3 4 4 3 3 3 3 2 2 2 2 3 4 3 3 3 3 3 3 3 3 4
8 8 3 3 3 3 6 7 5 9 11 13 14 14 13 12 11 11 11 10 9 8 8 7 7 7 5 3 3 4 4 2 3 2 3 2 3 3 3 3 3 3 4 4 4 3 3 4 4
6 6 4 2 4 4 5 4 4 7 10 11 13 14 13 12 11 11 12 11 10 9 8 8 8 7 6 4 4 4 4 4 3 2 3 3 3 3 4 3 3 2 3 4 4 4 4 4 4
5 4 2 2 2 3 4 7 6 11 12 11 12 13 14 13 13 12 11 11 10 9 8 8 8 7 6 5 4 4 4 4 3 2 3 3 3 3 2 1 2 3 3 3 4 3 3 3 2
8 6 4 2 2 2 1 2 3 11 12 12 12 12 13 13 12 11 10 10 10 9 8 7 7 7 6 6 5 5 3 3 3 3 3 1 2 3 2 2 3 3 4 4 4 3 4 4 3
8 8 6 3 3 2 1 3 2 6 9 11 11 11 11 11 11 11 11 11 10 10 9 8 7 7 6 6 6 5 4 3 4 3 2 0 2 2 3 3 3 4 4 4 4 3 3 3 3
Wind_Direction
299 287 281 265 254 236 30 64 78 65 66 58 55 67 67 52 62 91 133 103 98 97 97 89 85 85 86 86 84 83 83 83 82 81 80 78 76 75 73 69 68 67 64 61 57 54 50 46 41
294 296 285 244 262 268 68 71 76 75 84 85 71 74 74 70 79 94 105 97 97 95 89 87 86 84 84 84 85 85 84 83 81 80 79 78 76 74 71 69 68 66 63 59 55 50 45 42 38
281 274 270 260 274 55 92 81 87 89 88 86 81 65 59 75 81 100 119 103 98 94 92 89 88 86 86 85 84 83 82 81 80 78 77 76 75 73 70 68 66 62 57 54 50 45 39 33 28
288 280 248 255 321 71 94 105 104 99 88 85 89 73 66 73 98 120 119 107 103 101 98 94 92 90 88 85 84 84 82 80 78 76 75 74 73 72 69 68 62 56 51 46 44 40 33 29 21
264 259 261 252 81 85 94 102 94 93 84 84 88 91 83 82 101 109 105 103 105 106 106 104 100 96 92 88 85 84 83 81 79 77 75 74 72 71 67 67 61 52 46 40 36 31 27 25 16
275 260 270 237 106 92 78 80 85 95 98 99 103 103 97 108 107 107 103 105 108 112 112 114 111 107 101 94 90 87 84 82 81 81 82 84 86 84 75 65 55 44 38 33 27 21 18 12 0
274 279 263 232 130 107 91 84 85 98 106 108 109 107 116 118 116 112 108 105 109 119 127 130 130 120 113 109 105 100 95 92 94 99 105 108 109 104 94 76 56 41 31 21 17 10 1 349 327
281 288 281 279 121 107 100 96 94 91 91 109 117 116 128 131 127 119 119 115 114 117 124 133 135 138 138 131 127 127 128 131 138 162 191 188 177 154 140 107 78 52 30 10 347 330 307 295 284
268 265 274 319 102 108 113 111 102 104 101 84 85 113 129 136 132 130 127 119 117 119 120 122 123 135 140 142 143 157 162 173 182 207 238 232 202 181 174 110 123 122 279 286 277 274 269 268 266
231 264 278 64 87 113 124 124 130 121 104 99 101 113 128 138 143 145 143 137 136 131 125 128 130 130 115 105 135 159 156 161 173 147 184 222 88 79 93 132 175 208 232 257 258 261 262 255 246
232 237 351 85 84 103 121 133 126 123 123 124 127 132 140 147 149 145 132 123 122 121 121 120 113 111 112 102 100 89 95 110 75 26 81 50 33 57 109 165 192 222 215 253 261 251 241 233 209
239 205 187 92 91 120 125 117 109 113 128 131 135 141 148 153 147 134 125 125 120 111 108 105 109 100 86 81 103 105 73 73 54 9 48 65 37 29 38 62 26 357 34 331 314 299 338 9 13
223 206 138 118 132 153 124 107 109 117 125 131 140 146 150 148 134 123 121 118 110 109 102 84 81 89 96 94 101 95 67 63 95 18 30 60 49 36 14 77 48 27 10 7 332 341 19 4 15
199 177 159 160 153 147 128 123 123 129 135 141 146 151 154 145 134 135 137 134 128 124 114 101 100 110 124 123 94 85 110 107 78 33 52 57 57 50 23 36 41 27 9 1 352 7 16 10 24
204 184 185 188 178 157 142 140 145 146 147 151 153 157 151 146 145 146 141 141 132 127 117 107 105 84 73 65 60 85 71 70 68 32 30 64 58 55 38 25 20 11 11 15 13 9 5 16 32
205 205 205 201 185 177 165 159 159 161 160 158 160 155 152 155 157 153 146 138 131 129 121 119 104 90 82 73 49 64 64 57 62 43 18 26 48 63 47 15 12 26 20 11 20 25 9 13 26
211 213 203 189 191 185 175 162 167 168 167 164 163 157 162 167 166 156 149 140 130 128 134 135 106 97 92 102 98 66 75 58 64 56 29 17 29 47 46 19 22 24 30 14 17 30 14 19 14
215 214 201 188 186 190 175 165 167 175 176 171 167 166 172 170 168 156 146 130 116 119 125 116 109 109 112 96 91 79 63 60 62 65 47 27 28 41 34 32 30 25 30 18 24 26 16 22 11
266 237 213 190 183 186 176 171 177 180 179 175 175 173 177 170 164 151 139 129 131 132 127 127 138 131 121 109 98 94 89 83 71 72 40 34 40 36 54 37 37 33 34 31 30 23 19 15 26
254 230 200 176 198 184 180 181 189 186 184 184 183 178 177 171 158 150 150 153 154 151 156 144 128 119 113 105 105 111 96 93 94 80 54 44 42 23 29 40 40 42 41 33 34 38 27 12 27
236 230 204 178 216 191 189 192 191 192 189 185 193 185 181 174 160 159 161 159 152 164 169 135 126 125 121 108 75 71 70 80 97 92 62 50 51 39 25 25 27 42 52 47 44 43 41 27 11
229 228 232 188 201 211 203 207 205 192 190 188 190 191 188 176 162 161 162 158 162 168 157 132 124 117 109 108 95 107 106 92 84 102 118 90 66 56 28 19 24 41 45 40 41 45 36 41 22
224 232 228 210 221 250 225 216 217 191 193 193 192 192 186 173 162 161 161 159 160 149 128 115 111 109 106 108 112 96 93 102 98 97 102 99 86 78 46 25 27 43 52 51 51 44 41 40 38
181 214 227 225 241 243 231 223 216 197 194 192 189 187 182 172 166 158 151 145 142 131 123 115 110 109 116 133 141 128 114 112 104 99 103 113 113 94 68 48 37 42 49 48 48 54 48 45 42
192 191 191 195 214 239 218 225 227 198 193 188 183 181 176 170 163 155 152 151 150 145 140 131 125 127 141 162 159 141 133 128 121 122 104 95 105 86 65 60 50 40 35 50 41 44 51 49 48
207 208 205 211 219 241 208 221 217 187 182 178 174 172 171 168 163 157 156 155 156 153 150 147 142 145 155 170 149 120 114 97 92 88 107 89 92 99 97 79 62 44 34 39 41 36 39 45 43
208 218 231 270 270 245 215 192 158 160 163 169 168 167 169 167 161 159 157 159 159 156 155 153 150 153 158 163 130 113 109 96 101 95 92 97 97 108 109 115 113 94 66 44 37 44 38 43 38
225 221 216 218 254 240 222 202 181 169 170 170 169 168 166 167 164 160 158 158 156 154 158 160 159 156 156 153 140 124 107 101 91 82 74 91 95 84 91 106 119 110 98 74 52 45 30 50 50
211 220 216 220 245 279 254 249 192 172 171 170 171 171 165 163 160 158 158 156 152 152 159 162 159 152 153 147 129 124 125 128 118 96 88 85 126 134 121 78 76 81 82 80 65 43 35 33 39
220 225 218 224 242 219 281 292 287 164 166 167 169 167 161 157 156 155 155 156 156 159 165 164 158 150 148 142 141 150 148 154 143 131 131 116 78 89 102 85 70 76 74 76 74 47 40 39 43